Flight Track Log - Related Links

Times and Time Zones

All times are in EDT time to prevent confusion due to time zone crossing. See the SWA3228 flight status page for this flight to view local times or setup timezone preferences in your user account.

Time Position Orientation Groundspeed Altitude Reporting Facility
EDT Latitude Longitude Course Direction KTS MPH feet Rate Location/Type
Fri 12:40:39 PM 41.7667 -87.7833 340° North 150 173 2,000  Level Chicago TRACON
Fri 12:41:27 PM 41.8000 -87.8000 340° North 248 285 3,100 774 Climbing Chicago TRACON
Fri 12:42:12 PM 41.8097 -87.7417 77° East 241 277 3,200 1,234 Climbing Chicago Center
Fri 12:43:14 PM 41.7975 -87.6464 100° East 248 285 5,300 3,145 Climbing Chicago Center
Fri 12:44:16 PM 41.8192 -87.5333 76° East 309 356 9,700 4,113 Climbing Chicago Center
Fri 12:45:18 PM 41.8078 -87.4219 98° East 301 346 13,800 3,823 Climbing Chicago Center
Fri 12:46:20 PM 41.7872 -87.2636 100° East 359 413 17,600 3,435 Climbing Chicago Center
Fri 12:47:22 PM 41.7694 -87.1281 100° East 368 423 20,900 2,613 Climbing Chicago Center
Fri 12:48:24 PM 41.7608 -86.9783 94° East 398 458 23,000 2,081 Climbing Chicago Center
Fri 12:49:26 PM 41.7644 -86.8197 88° East 425 489 25,200 2,323 Climbing Chicago Center
Fri 12:50:28 PM 41.7656 -86.6461 89° East 438 504 27,800 2,613 Climbing Chicago Center
Fri 12:51:30 PM 41.7672 -86.4808 89° East 443 510 30,600 1,548 Climbing Chicago Center
Fri 12:52:32 PM 41.7689 -86.3144 89° East 446 513 31,000 194 Climbing Chicago Center
Fri 12:53:34 PM 41.7883 -86.1372 82° East 480 552 31,000  Level Chicago Center
Fri 12:54:37 PM 41.8083 -85.9564 82° East 489 563 31,000  Level Chicago Center
Fri 12:55:39 PM 41.8311 -85.7406 82° East 485 558 31,000  Level Chicago Center
Fri 12:56:41 PM 41.8503 -85.5603 82° East 482 555 31,000  Level Chicago Center
Fri 12:57:43 PM 41.8692 -85.3797 82° East 482 555 31,000  Level Chicago Center
Fri 12:58:45 PM 41.8875 -85.2000 82° East 481 554 31,000  Level Chicago Center
Fri 12:59:47 PM 41.9056 -85.0206 82° East 483 556 31,000  Level Chicago Center
Fri 01:00:49 PM 41.9228 -84.8436 82° East 479 551 31,000  Level Chicago Center
Fri 01:01:51 PM 41.9394 -84.6661 83° East 479 551 31,000  Level Chicago Center
Fri 01:02:53 PM 41.9606 -84.4522 82° East 485 558 31,000 -149 Level Chicago Center
Fri 01:03:52 PM 41.9772 -84.2844 82° East 478 550 30,700 -605 Descending Cleveland Center
Fri 01:04:52 PM 41.9844 -84.1283 86° East 473 544 29,800 -950 Descending Cleveland Center
Fri 01:05:52 PM 42.0019 -83.9561 82° East 468 539 28,800 -1,000 Descending Cleveland Center
Fri 01:06:52 PM 42.0175 -83.7864 83° East 461 531 27,800 -1,300 Descending Cleveland Center
Fri 01:07:52 PM 42.0322 -83.6192 83° East 456 525 26,200 -1,600 Descending Cleveland Center
Fri 01:08:52 PM 42.0428 -83.4575 85° East 441 507 24,600 -1,300 Descending Cleveland Center
Fri 01:09:52 PM 42.0300 -83.2975 96° East 441 507 23,600 -4,800 Descending Cleveland Center
Fri 01:10:52 PM 42.0147 -83.1403 97° East 434 499 15,000 -1,450 Descending Cleveland Center
Fri 01:11:52 PM 41.9994 -82.9889 98° East 421 484 20,700 2,350 Climbing Cleveland Center
Fri 01:12:52 PM 41.9856 -82.8403 97° East 406 467 19,700 -1,550 Descending Cleveland Center
Fri 01:13:52 PM 41.9717 -82.7003 98° East 396 456 17,600 -2,200 Descending Cleveland Center
Fri 01:14:52 PM 41.9575 -82.5572 98° East 385 443 15,300 -2,412 Descending Cleveland Center
Fri 01:15:29 PM 41.9319 -82.4672 111° Southeast 360 414 13,700 -2,250 Descending Cleveland Center
Fri 01:15:48 PM 41.9219 -82.4389 115° Southeast 351 404 13,200 -2,051 Descending Cleveland Center
Fri 01:16:48 PM 41.8803 -82.3122 114° Southeast 341 392 11,000 -1,587 Descending Cleveland Center
Fri 01:17:49 PM 41.8275 -82.2189 127° Southeast 299 344 10,000 -968 Descending Cleveland Center
Fri 01:18:52 PM 41.7719 -82.1533 139° Southeast 300 345 9,000 -1,279 Descending Cleveland Center
Fri 01:19:51 PM 41.7083 -82.0850 141° Southeast 275 316 7,400 -1,450 Descending Cleveland Center
Fri 01:20:52 PM 41.6528 -82.0200 139° Southeast 270 311 6,100 -1,388 Descending Cleveland Center
Fri 01:21:52 PM 41.5975 -81.9492 136° Southeast 269 310 4,600 -1,500 Descending Cleveland Center
Fri 01:22:52 PM 41.5439 -81.8814 137° Southeast 269 310 3,100 -703 Descending Cleveland Center
Fri 01:24:00 PM 41.5053 -81.8058 124° Southeast 196 226 3,100 -465 Level Cleveland Center
Fri 01:25:01 PM 41.4700 -81.7886 160° South 125 144 2,100 -750 Descending Cleveland Center
Fri 01:26:08 PM 41.4364 -81.8128 208° Southwest 131 151 1,500 -590 Descending Cleveland Center
Fri 01:27:03 PM 41.4153 -81.8458 230° Southwest 125 144 900 -655 Descending Cleveland Center
Fri 01:29:00 PM 41.4000 -81.8500 153° Southeast  Level FlightAware Approximate

Login

Don't have an account? Register now (free) for customized features, flight alerts, and more!